GSAT0223 (GALILEO 27)

Last updated on Wed Oct 09 2024 00:02:27 GMT+0000 (Coordinated Universal Time)

1 49809U 21116A 24282.45093972 -.00000079 00000+0 00000+0 0 9993 2 49809 57.2921 358.3196 0003932 212.4613 122.8912 1.70476337 17662
UTC large
Height (km)
Speed (km/s)
/
Latitude / Longitude
Inclination (degrees)
Orbital Period (minutes)
Azimuth
Elevation
Range (km)
Doppler Factor

Next 0 passes for location: London (51.5072 / 0.1276)

Sorry there are no passes over London.